EHI
0 0 0 0 0 0 0 0 0 0 0 0 0 0 0 0 0 0 0 0 0 0 1 3 6 6 4 2 1 2 3 4 4 4 5 5 4 4 2 1 0 0 0 0 0 0 0 0 0
0 0 0 0 0 0 0 0 0 0 0 0 0 0 0 0 0 0 0 0 0 0 1 3 6 7 4 1 0 1 2 3 3 4 5 5 4 4 2 1 0 0 0 0 0 0 0 0 0
0 0 0 0 0 0 0 0 0 0 0 0 0 0 0 0 0 0 0 0 0 0 0 2 6 7 5 2 0 0 1 2 3 3 4 3 3 3 2 1 0 0 0 0 0 0 0 0 0
0 0 0 0 0 0 0 0 0 0 0 0 0 0 0 0 0 0 0 0 0 0 0 1 5 6 5 2 0 0 0 1 2 3 3 1 1 1 1 0 0 0 0 0 0 0 0 0 0
0 0 0 0 0 0 0 0 0 0 0 0 0 0 0 0 0 0 0 0 0 0 0 1 3 5 4 1 0 0 0 0 1 2 2 1 0 0 0 0 0 0 0 0 0 0 0 0 0
0 0 0 0 0 0 0 0 0 0 0 0 0 0 0 0 0 0 0 0 0 0 0 0 1 3 2 1 0 0 0 0 0 1 2 2 1 0 0 0 0 0 0 0 0 0 0 0 0
0 0 0 0 0 0 0 0 0 0 0 0 0 0 0 0 0 0 0 0 0 0 0 0 1 1 1 1 0 0 0 0 0 0 1 1 1 0 0 0 0 0 0 0 0 0 0 0 0
0 0 0 0 0 0 0 0 0 0 0 0 0 0 0 0 0 0 0 0 0 0 0 0 0 0 0 0 0 0 0 0 0 0 0 0 0 0 0 0 0 0 0 0 0 0 0 0 0
0 0 0 0 0 0 0 0 0 0 0 0 0 0 0 0 0 0 0 0 0 0 0 0 0 0 0 0 0 0 0 0 0 0 0 0 0 0 0 0 0 0 0 0 0 0 0 0 0
0 0 0 0 0 0 0 0 0 0 0 0 0 0 0 0 0 0 0 0 0 0 0 0 0 0 0 0 0 0 0 0 0 0 0 0 0 0 0 0 0 0 0 0 0 0 0 0 0
0 0 0 0 0 0 0 0 0 0 0 0 0 0 0 0 0 0 0 0 0 0 0 0 0 0 0 0 0 0 0 0 0 0 0 0 0 0 0 0 0 0 0 0 0 0 0 0 0
0 0 0 0 0 0 0 0 0 0 0 0 0 0 0 0 0 0 0 0 0 0 0 0 0 0 0 0 0 0 0 0 0 0 0 0 0 0 0 0 0 0 0 0 0 0 0 0 0
0 0 0 0 0 0 0 0 0 0 0 0 0 0 0 0 0 0 0 0 0 0 0 0 0 0 0 0 0 0 0 0 0 0 0 0 0 0 0 0 0 0 0 0 0 0 0 0 0
0 0 0 0 0 0 0 0 0 0 0 0 0 0 0 0 0 0 0 0 0 0 0 0 0 0 0 0 0 0 0 0 0 0 0 0 0 0 0 0 0 0 0 0 0 0 0 0 0
0 0 0 0 0 0 0 0 0 0 0 0 0 0 0 0 0 0 0 0 0 0 0 0 0 0 0 0 0 0 0 0 0 0 0 0 0 0 0 0 0 0 0 0 0 0 0 0 0
0 0 0 0 0 0 0 0 0 0 0 0 0 0 0 0 0 0 0 0 0 0 0 0 0 0 0 0 0 0 0 0 0 0 0 0 0 0 0 0 0 0 0 0 0 0 0 0 0
0 0 0 0 0 0 0 0 0 0 0 0 0 0 0 0 0 0 0 0 0 0 0 0 0 0 0 0 0 0 0 0 0 0 0 0 0 0 0 0 0 0 0 0 0 0 0 0 0
0 0 0 0 0 0 0 0 0 0 0 0 0 0 0 0 0 0 0 0 0 0 0 0 0 0 0 0 0 0 0 0 0 0 0 0 0 0 0 0 0 0 0 0 0 0 0 0 0
0 0 0 0 0 0 0 0 0 0 0 0 0 0 0 0 0 0 0 0 0 0 0 0 0 1 1 1 0 0 0 0 0 0 0 0 0 0 0 0 0 0 0 0 0 0 0 0 0
0 0 0 0 0 0 0 0 0 0 0 0 0 0 0 0 0 0 0 0 0 0 0 0 1 2 2 1 0 0 0 0 0 0 0 0 0 0 0 0 0 0 0 0 0 0 0 0 0
0 0 0 0 0 0 0 0 0 0 0 0 0 0 0 0 0 0 0 0 0 0 0 1 2 2 2 1 0 0 0 0 0 0 0 0 0 0 0 0 0 0 0 0 0 0 0 0 0
0 0 0 0 0 0 0 0 0 0 0 0 0 0 0 0 0 0 0 0 0 0 0 1 2 1 1 1 0 0 0 0 0 0 0 0 0 0 0 0 0 0 0 0 0 0 0 0 0
0 0 0 0 0 0 0 0 0 0 0 0 0 0 0 0 0 0 0 0 0 0 0 1 1 0 0 1 1 0 0 0 0 0 0 0 0 0 0 0 0 0 0 0 0 0 0 0 0
0 0 0 0 0 0 0 0 0 0 0 0 0 0 0 0 0 0 0 0 0 0 0 0 0 0 0 1 1 1 0 0 0 0 0 0 0 0 0 0 0 0 0 0 0 0 0 0 0
0 0 0 0 0 0 0 0 0 0 0 0 0 0 0 0 0 0 0 0 0 0 0 0 0 0 0 1 2 2 1 0 0 0 0 0 0 0 0 0 0 0 0 0 0 0 0 0 0
0 0 0 0 0 0 0 0 0 0 0 0 0 0 0 0 0 0 0 0 0 0 0 0 0 0 0 1 2 3 2 1 0 0 0 0 0 0 0 0 0 0 0 0 0 0 0 0 0
0 0 0 0 0 0 0 0 0 0 0 0 0 0 0 0 0 0 0 0 0 0 0 0 0 0 0 0 1 2 2 1 0 0 0 0 0 0 0 0 0 0 0 0 0 0 0 0 0
0 0 0 0 0 0 0 0 0 0 0 0 0 0 0 0 0 0 0 0 0 0 0 0 0 0 0 0 0 1 1 1 0 0 0 0 0 0 0 0 0 0 0 0 0 0 0 0 0
0 0 0 0 0 0 0 0 0 0 0 0 0 0 0 0 0 0 0 0 0 0 0 0 0 0 0 0 0 0 0 0 0 0 0 0 0 0 0 0 0 0 0 0 0 0 0 0 0
0 0 0 0 0 0 0 0 0 0 0 0 0 0 0 0 0 0 0 0 0 0 0 0 0 0 0 0 0 0 0 0 0 0 0 0 0 0 0 0 0 0 0 0 0 0 0 0 0
Wind_Speed
2 4 3 4 4 1 6 7 4 4 4 3 3 6 7 8 8 5 0 9 11 12 12 15 19 19 18 17 16 15 15 15 14 14 13 13 13 13 13 13 13 13 13 13 13 13 14 14 14
2 3 4 4 4 5 8 6 7 8 4 1 1 2 3 5 3 3 4 8 12 13 11 12 18 19 19 18 17 16 15 15 14 14 14 13 13 13 13 13 13 13 13 13 13 13 13 13 13
2 2 3 3 6 9 8 6 8 6 4 2 1 1 3 4 4 6 6 11 12 12 10 12 19 20 19 18 18 17 16 15 14 14 14 13 13 13 13 13 13 13 12 12 13 12 12 12 12
2 3 3 3 12 10 7 4 3 2 2 2 2 2 3 1 4 5 9 12 13 11 9 12 20 20 19 19 18 17 16 15 14 14 13 13 13 13 12 12 12 12 12 12 12 12 12 11 11
3 3 3 8 14 8 6 5 3 3 3 2 2 2 3 2 3 7 12 13 14 11 9 11 19 20 20 19 18 17 16 15 14 14 13 13 13 12 12 12 11 12 11 11 11 11 11 11 10
2 3 6 13 14 8 6 5 3 5 4 2 3 3 3 1 5 9 11 11 11 11 10 10 18 19 19 19 18 17 16 16 15 14 13 13 12 12 12 11 11 11 11 10 10 10 10 10 10
4 5 9 10 10 10 8 6 7 7 7 7 6 4 3 2 6 10 9 9 8 9 9 8 10 13 17 18 18 17 16 16 15 14 13 12 12 12 12 11 11 10 10 9 9 9 9 9 9
4 4 9 10 10 10 5 5 5 9 8 4 7 7 6 5 9 10 10 9 8 8 7 7 8 8 9 10 15 15 15 14 14 13 11 11 11 11 11 10 10 10 9 9 9 8 8 8 9
3 6 14 13 10 6 4 5 4 3 4 3 4 4 3 11 14 13 11 10 11 10 7 7 8 8 8 8 11 12 13 12 12 10 11 9 5 5 6 7 8 9 9 8 8 7 8 8 8
6 12 17 8 6 5 4 6 4 2 4 4 2 0 6 14 17 18 17 18 17 16 12 8 9 9 8 7 7 6 5 6 6 6 7 5 4 4 4 6 6 7 7 7 7 7 7 6 4
7 11 9 7 6 4 5 5 4 5 7 8 7 7 12 15 16 17 18 18 18 16 14 11 10 10 9 6 6 4 4 4 5 7 7 5 4 3 3 2 3 3 4 3 4 5 3 3 3
7 9 7 7 6 6 7 5 5 8 11 6 6 9 14 18 19 20 19 18 16 16 16 13 12 10 9 7 6 5 4 4 4 6 7 5 4 3 3 2 2 2 2 3 3 2 3 3 3
10 9 9 8 8 8 8 9 7 10 10 5 4 9 15 18 18 16 13 13 14 17 17 15 14 12 10 8 7 6 6 6 6 5 6 6 5 4 3 2 2 2 2 2 2 2 2 2 2
7 7 8 8 9 7 10 11 8 13 6 4 7 11 15 17 17 14 13 15 17 17 17 16 16 14 12 9 8 7 6 6 6 6 7 7 5 5 4 3 3 2 2 2 3 3 2 1 1
4 6 9 9 9 6 6 13 15 13 5 7 9 11 13 14 13 17 18 18 18 17 17 17 16 15 13 11 10 7 7 7 6 6 7 7 7 6 5 4 3 3 3 3 3 3 2 2 1
3 6 9 7 8 8 8 17 13 7 8 10 10 10 11 12 14 14 14 13 13 14 16 16 15 15 15 12 10 7 7 7 6 6 7 8 8 7 6 5 4 4 3 3 3 2 2 1 1
5 8 9 7 7 7 10 13 8 6 9 10 10 10 11 11 12 12 12 13 14 15 16 17 16 16 15 12 9 7 7 7 6 6 7 8 8 8 6 5 4 5 4 3 3 2 2 2 1
7 7 7 9 4 6 10 13 10 5 8 10 10 10 10 12 15 13 12 13 13 14 15 16 15 15 14 11 8 6 7 7 6 7 8 9 8 9 7 5 6 6 4 3 3 3 2 2 2
7 7 10 9 5 6 11 14 12 9 8 9 9 10 11 14 13 10 11 11 12 14 15 17 17 16 13 11 11 10 10 8 7 7 9 10 9 10 8 6 6 6 5 5 5 3 3 1 2
9 11 10 8 5 6 9 14 12 11 11 11 11 11 12 12 10 10 11 12 15 17 18 18 18 17 17 13 11 8 7 6 6 6 8 10 10 10 9 8 7 7 5 6 6 4 3 2 2
10 11 9 8 7 5 6 11 11 10 10 11 11 11 11 14 14 12 13 15 15 17 19 18 19 19 18 14 8 7 5 4 5 7 8 10 11 11 10 10 8 8 7 7 7 6 6 4 2
11 8 8 8 5 5 4 9 8 8 10 12 13 12 12 13 13 12 12 14 16 18 17 18 18 18 17 16 14 15 12 11 11 9 8 9 10 11 11 10 10 9 7 7 7 7 5 5 4
7 4 6 7 6 7 6 8 9 4 10 12 13 13 13 13 13 13 13 14 16 16 16 17 17 18 18 18 18 17 13 10 7 6 9 9 9 10 11 11 10 9 8 8 8 7 6 5 5
3 1 3 3 3 9 10 9 10 6 10 9 10 12 12 12 12 12 11 10 11 12 13 14 16 18 18 19 18 18 17 13 11 11 11 9 7 8 11 11 10 10 8 9 8 8 9 7 6
3 3 2 4 6 8 7 9 12 9 8 10 10 10 11 10 10 10 10 11 11 13 14 15 17 18 18 19 19 19 18 16 16 14 13 11 9 9 12 11 11 9 9 9 8 8 8 8 7
5 6 5 5 5 3 4 10 9 7 6 6 7 7 7 7 8 9 10 11 12 13 15 16 18 18 18 19 19 18 17 13 12 13 11 12 11 11 11 12 11 10 10 9 9 7 8 7 7
4 6 4 2 2 3 6 7 8 4 5 5 6 4 5 6 7 8 8 9 10 12 14 17 18 17 18 19 18 17 17 15 13 13 11 10 9 8 11 12 11 10 10 10 9 7 8 7 7
4 2 2 4 3 5 6 5 5 3 4 4 4 5 6 5 5 5 6 8 9 10 11 13 16 18 17 18 17 14 16 16 14 12 13 12 11 10 11 12 12 11 10 10 10 7 7 8 7
3 3 3 3 3 4 5 6 5 4 2 3 5 5 5 5 4 4 4 5 5 5 7 10 13 13 13 15 15 15 15 15 13 13 13 12 11 12 12 13 12 12 11 11 10 9 9 9 8
3 4 3 3 4 4 4 8 3 1 2 4 6 7 6 5 4 4 4 3 3 4 6 8 10 12 13 13 13 15 14 14 14 14 13 12 12 12 12 12 12 12 11 11 11 11 10 10 10
Wind_Direction
79 97 88 69 61 56 236 235 224 235 226 219 176 170 178 180 174 209 195 145 139 149 161 164 161 158 154 150 146 142 139 134 131 129 127 124 121 117 113 110 107 104 100 97 96 95 94 92 90
118 109 70 77 134 221 247 229 222 223 216 164 139 160 178 224 212 152 149 159 147 151 156 159 161 158 155 152 149 146 143 139 136 132 130 126 123 120 117 112 108 104 102 99 98 97 96 93 91
137 97 113 124 189 208 230 223 222 240 233 228 235 208 201 214 187 180 177 156 146 151 154 160 162 160 157 155 152 149 147 144 140 136 133 130 126 123 119 115 109 106 104 102 101 100 99 96 92
117 72 76 185 227 221 215 216 200 236 255 219 177 267 263 274 189 181 152 152 147 150 152 163 163 162 159 157 154 152 150 147 145 142 138 135 129 125 123 118 114 111 108 105 104 104 103 99 96
86 121 194 233 238 235 229 234 224 218 228 199 153 223 263 346 111 137 148 154 153 151 155 165 164 163 160 159 157 155 153 151 149 146 143 140 135 131 127 124 120 116 112 110 108 107 105 102 98
115 135 204 233 239 241 239 218 220 235 236 216 176 189 245 48 135 146 151 154 154 154 156 164 167 165 163 161 159 157 157 156 154 152 149 146 141 137 132 128 124 121 118 115 112 110 107 104 98
169 185 222 232 244 243 233 192 207 223 238 223 178 175 263 199 160 146 144 142 147 153 155 163 166 164 164 163 161 160 160 159 158 157 154 150 146 143 138 134 130 125 121 118 114 112 110 106 100
180 191 229 227 232 244 217 192 207 201 229 201 164 180 223 191 150 137 137 144 151 158 161 161 158 157 158 160 161 161 162 162 160 157 152 148 147 145 141 137 136 132 128 124 121 116 111 106 101
163 216 231 222 215 234 196 207 229 201 186 191 200 209 217 141 144 144 150 160 169 173 172 164 157 154 151 154 163 160 162 162 158 151 143 131 121 121 129 133 139 139 135 130 123 115 108 98 95
189 228 234 224 205 208 204 213 217 199 219 227 223 122 128 149 159 165 171 175 180 182 181 172 164 157 154 159 155 153 153 151 142 136 132 121 119 120 121 134 139 139 133 127 120 111 96 80 69
207 232 246 244 233 226 229 232 212 198 232 220 208 181 158 167 173 180 183 183 184 181 181 177 170 163 160 157 152 147 139 136 135 137 134 129 121 116 108 113 122 112 104 89 92 80 72 77 80
230 243 242 245 241 243 240 236 231 218 233 232 213 175 169 179 185 190 189 187 183 182 184 179 173 169 166 159 157 151 146 146 147 148 144 138 135 134 134 125 116 105 100 99 87 90 84 81 84
235 248 250 256 251 250 254 243 242 248 251 254 191 174 184 190 195 196 192 187 185 186 185 182 177 175 170 161 163 161 160 159 156 153 155 151 150 154 151 144 136 132 124 124 118 110 104 98 95
237 252 261 258 252 250 252 257 240 249 235 224 196 195 198 200 197 190 188 190 191 191 188 184 183 179 173 171 170 168 166 161 158 162 164 160 158 160 159 157 155 157 150 143 137 137 130 119 110
250 264 267 249 239 236 242 258 238 241 211 220 216 211 208 208 198 197 195 193 193 191 188 187 185 181 179 177 175 171 171 167 170 171 168 168 165 167 166 165 169 170 153 140 125 119 110 113 108
222 238 249 241 221 217 212 253 251 222 202 221 222 219 217 215 208 206 200 196 191 189 189 189 187 185 184 181 178 173 173 172 175 172 172 175 173 170 168 170 177 167 151 145 141 135 123 123 128
210 231 242 258 221 202 207 252 260 208 203 221 221 220 219 219 218 213 202 196 190 191 190 190 190 187 187 183 179 175 174 177 177 175 177 180 178 175 172 176 175 162 154 156 157 141 144 155 165
220 229 243 243 245 219 226 248 260 234 215 226 224 221 220 220 221 211 202 194 190 189 191 191 191 189 185 180 175 173 177 182 180 182 184 181 181 177 174 173 171 163 159 163 160 149 140 149 158
248 251 256 260 260 247 248 253 256 249 234 235 232 227 224 226 227 214 202 194 186 187 190 192 192 189 184 184 185 187 191 188 188 189 186 184 182 178 177 176 171 171 175 176 166 150 149 149 136
248 251 260 278 258 246 262 264 258 243 235 228 227 228 227 229 227 217 204 195 193 192 193 193 194 191 190 192 190 188 179 182 186 184 186 187 185 181 183 179 178 177 173 171 173 159 150 155 155
239 237 239 257 297 269 279 276 252 245 235 234 227 227 226 224 221 216 207 201 198 197 195 195 195 193 193 188 175 161 155 154 178 191 193 192 188 186 186 184 179 179 179 184 184 177 166 167 180
246 237 240 250 259 264 225 275 264 236 239 235 232 226 226 226 221 215 209 205 202 202 197 197 195 194 191 185 183 182 188 193 196 190 191 186 188 187 187 184 183 183 185 186 186 184 176 159 172
238 240 244 246 245 261 235 254 272 229 236 235 229 226 226 225 220 215 210 210 207 202 197 197 194 194 191 189 190 191 197 198 180 173 180 185 188 190 189 187 186 186 189 189 183 180 183 178 172
227 236 267 251 234 247 224 224 267 222 225 235 230 227 226 223 221 219 214 209 209 203 198 195 194 196 192 192 193 196 197 189 178 182 187 189 188 191 192 189 190 189 188 189 187 186 186 188 180
184 186 230 220 220 242 197 211 248 232 226 226 232 232 228 224 219 216 212 207 207 203 198 195 196 198 194 194 197 199 199 193 193 191 191 188 189 193 195 191 192 191 190 186 182 184 188 188 187
217 198 210 222 222 262 206 228 251 245 243 245 244 247 245 233 223 218 214 208 208 206 200 196 197 199 196 196 199 200 198 197 199 195 192 193 196 197 189 190 191 190 185 182 181 185 190 188 192
197 217 223 252 270 257 243 265 295 276 275 268 266 265 260 252 238 230 223 214 210 206 202 198 198 199 197 197 198 198 198 198 197 193 192 194 193 185 182 185 187 187 184 182 180 189 190 186 192
204 180 176 205 223 244 255 248 249 274 269 287 294 291 284 277 266 248 232 223 216 211 205 199 198 199 198 196 196 197 197 198 195 189 192 193 189 181 179 183 185 185 183 182 182 185 185 184 190
189 205 217 210 219 223 258 260 227 218 251 292 296 300 298 298 288 276 264 242 227 214 204 199 198 197 196 196 195 194 194 193 190 191 194 192 187 182 182 184 184 184 184 182 184 188 181 186 190
204 201 192 218 243 233 250 265 255 211 323 335 320 320 321 313 303 289 281 266 232 214 207 203 198 196 196 194 192 194 192 188 190 193 192 188 185 185 184 180 182 185 185 184 186 188 185 188 192